Change the Weather History Date:

Wednesday, April 9, 2014

  Actual Average Record
Temperature  
Mean Temperature 44 °F -  
Max Temperature 54 °F 56 °F 80 °F (2013)
Min Temperature 36 °F 35 °F 21 °F (1997)
Degree Days  
Heating Degree Days 20    
Moisture  
Dew Point 33 °F    
Average Humidity 63    
Maximum Humidity 79    
Minimum Humidity 44    
Precipitation  
Precipitation 0.00 in - - ()
Sea Level Pressure  
Sea Level Pressure 29.95 in    
Wind  
Wind Speed 9 mph (NW)    
Max Wind Speed 23 mph    
Max Gust Speed 30 mph    
Visibility 10 miles    
Events      
Averages and records for this station are not official NWS values.
T = Trace of Precipitation, MM = Missing Value Source: NWS Daily Summary

Daily Weather History Graph

Daily Weather History Graph

Search for Another Location

Airport or City:

Trip Planner

Search our weather history database for the weather conditions in past years. The results will help you decide how hot, cold, wet, or windy it might be!

Date:

Astronomy

Apr. 09, 2014 Rise Set
Actual Time 6:58 AM EDT 8:00 PM EDT
Civil Twilight 6:29 AM EDT 8:28 PM EDT
Nautical Twilight 5:56 AM EDT 9:02 PM EDT
Astronomical Twilight 5:21 AM EDT 9:37 PM EDT
Moon 2:45 PM EDT (4/9) 3:48 AM EDT (4/9)
Length of Visible Light 13h 59m
Length of Day
13h 02m
Waxing Gibbous, 71% of the Moon is Illuminated
Apr 9
Waxing Gibbous
Apr 15
Full
Apr 22
Last Quarter
Apr 29
New
May 6
First Quarter

Hourly Weather History & Observations

Time (EDT) Temp. Windchill Dew Point Humidity Pressure Visibility Wind Dir Wind Speed Gust Speed Precip Events Conditions
12:56 AM 41.0 °F 39.0 °F 34.0 °F 76% 29.78 in 10.0 mi West 3.5 mph - N/A   Overcast
1:56 AM 41.0 °F 35.8 °F 35.1 °F 79% 29.78 in 10.0 mi WNW 8.1 mph - N/A   Clear
2:56 AM 42.1 °F 36.6 °F 36.0 °F 79% 29.79 in 10.0 mi NNW 9.2 mph - N/A   Clear
3:56 AM 39.9 °F 33.9 °F 34.0 °F 79% 29.80 in 10.0 mi North 9.2 mph - N/A   Scattered Clouds
4:56 AM 39.0 °F 31.8 °F 33.1 °F 79% 29.82 in 10.0 mi North 11.5 mph - N/A   Partly Cloudy
5:56 AM 39.0 °F 32.8 °F 32.0 °F 76% 29.84 in 10.0 mi North 9.2 mph - N/A   Mostly Cloudy
6:56 AM 36.0 °F 28.5 °F 30.0 °F 79% 29.89 in 10.0 mi North 10.4 mph - N/A   Clear
7:56 AM 39.0 °F 32.8 °F 30.0 °F 70% 29.93 in 10.0 mi North 9.2 mph - N/A   Clear
8:56 AM 41.0 °F 34.3 °F 32.0 °F 70% 29.95 in 10.0 mi North 11.5 mph - N/A   Clear
9:56 AM 45.0 °F 38.9 °F 34.0 °F 65% 29.97 in 10.0 mi NNW 12.7 mph - N/A   Scattered Clouds
10:56 AM 46.9 °F - 35.1 °F 63% 29.99 in 10.0 mi NW 10.4 mph - N/A   Clear
11:56 AM 50.0 °F - 34.0 °F 54% 30.00 in 10.0 mi NW 12.7 mph - N/A   Clear
12:56 PM 52.0 °F - 33.1 °F 49% 29.99 in 10.0 mi WNW 16.1 mph 21.9 mph N/A   Scattered Clouds
1:56 PM 51.1 °F - 30.0 °F 44% 30.00 in 10.0 mi NW 17.3 mph - N/A   Partly Cloudy
2:56 PM 53.1 °F - 32.0 °F 45% 30.00 in 10.0 mi WNW 23.0 mph 29.9 mph N/A   Scattered Clouds
3:56 PM 52.0 °F - 30.9 °F 45% 30.01 in 10.0 mi NNW 13.8 mph - N/A   Clear
4:56 PM 52.0 °F - 30.9 °F 45% 30.01 in 10.0 mi NNW 9.2 mph - N/A   Clear
5:56 PM 52.0 °F - 30.9 °F 45% 30.01 in 10.0 mi NNW 6.9 mph - N/A   Clear
6:56 PM 51.1 °F - 32.0 °F 48% 30.02 in 10.0 mi NNW 4.6 mph - N/A   Clear
7:56 PM 48.9 °F - 33.1 °F 54% 30.02 in 10.0 mi West 5.8 mph - N/A   Clear
8:56 PM 44.1 °F 42.5 °F 32.0 °F 63% 30.04 in 10.0 mi SSW 3.5 mph - N/A   Clear
9:56 PM 41.0 °F - 33.1 °F 73% 30.05 in 10.0 mi Calm Calm - N/A   Clear
10:56 PM 39.9 °F 37.8 °F 33.1 °F 77% 30.04 in 10.0 mi SSW 3.5 mph - N/A   Clear
11:56 PM 42.1 °F 38.4 °F 30.0 °F 62% 30.03 in 10.0 mi South 5.8 mph - N/A   Clear